Powrót do katalogu

STARLINK-4620

AktywnyŁącznośćSSO
NORAD 53674·PAYLOAD·🇺🇸 United States

Wystrzelony Aug 31, 2022 z Vandenberg Space Force Base

Loading…

Następne Przeloty (najbliższe 24 godziny)

TLE

ŚwieżeSource: CelesTrak SupGP

Epoka: Sep 14, 2026, 21:22 UTC

1 53674C 22105AC  26257.89076389 -.00015656  00000+0 -10871-2 0  2577
2 53674  97.2842 131.9822 0001913  84.8702 120.3977 15.05660612    10

Śledź STARLINK-4620 w czasie rzeczywistym z AllMySat

Download on the App Store